Location: Dittelbrunn
(50.0738°N, 10.2196°E)
Time: 22:17:35
(UTC+00:00)

Cosmos 1072 Rocket - Pass Details

Date: 18 September 2020
Orbit: 949 x 1008 km, 82.9° (Epoch: 20 October)

Event Time Altitude Azimuth Distance (km) Brightness Sun altitude
Rises 18:48:22 0° 184° (S) 3,649 7.3 -13.9°
Reaches altitude 10° 18:50:51 10° 184° (S) 2,714 6.7 -14.2°
Maximum altitude 18:57:05 84° 97° (E) 998 4.5 -15.2°
Drops below altitude 10° 19:03:28 10° 11° (N) 2,773 7.0 -16.1°
Sets 19:06:01 0° 11° (N) 3,733 7.7 -16.5°
